Regional Weather Roundup
Issued by NWS Newport/Morehead, NC

Current Version | Previous Version | Text Only | Print | Product List | Glossary Off
Versions: 1 2 3 4 5 6 7 8 9 10 11 12 13 14 15 16 17 18 19 20 21 22 23 24 25 26 27 28 29 30 31 32 33 34 35 36 37 38 39 40 41 42 43 44 45 46 47 48 49 50
000 ASUS42 KMHX 012122 RWRMHX WEATHER ROUNDUP FOR EASTERN NORTH CAROLINA NATIONAL WEATHER SERVICE NEWPORT/MOREHEAD CITY NC 400 PM EST SUN FEB 01 2015 NOTE: "FAIR" INDICATES FEW OR NO CLOUDS BELOW 12,000 FEET WITH NO SIGNIFICANT WEATHER AND/OR OBSTRUCTIONS TO VISIBILITY NCZ015>017-031-032-045>047-102-103-012200- NORTH COAST CITY SKY/WX TMP DP RH WIND PRES REMARKS EDENTON CLOUDY 48 30 50 SE3 30.15F ELIZABETH CITY PTSUNNY 44 32 62 SE5 30.17F KITTY HAWK PTCLDY 45 32 60 SE3 30.17S MANTEO MOSUNNY 46 28 49 SE9 30.18F $$ NCZ045>047-081-094-103-104-012200- CENTRAL COAST CITY SKY/WX TMP DP RH WIND PRES REMARKS FRISCO PTSUNNY 52 38 58 SW9 30.19F SWANQUARTER N/A 48 N/A N/A S5 30.12F $$ NCZ095-097-098-100-101-012200- SOUTHERN COAST CITY SKY/WX TMP DP RH WIND PRES REMARKS BEAUFORT PTSUNNY 53 38 56 SW6 30.18F CEDAR ISLAND N/A 57 N/A N/A S3G10 30.21S JACKSONVILLE MOSUNNY 57 35 43 S8G18 30.15F PINEY ISLAND N/A N/A N/A N/A MISG 30.17F WILMINGTON SUNNY 60 40 47 S12 30.14F $$ NCZ011>013-027>030-043-044-078>080-089-090>093-098-012200- COASTAL PLAIN CITY SKY/WX TMP DP RH WIND PRES REMARKS AHOSKIE CLOUDY 54 24 31 S12 30.13F CLINTON CLOUDY 60 38 44 S8 30.13S ELIZABETHTOWN CLOUDY 59 36 41 S9 30.13S GOLDSBORO PTSUNNY 58 29 34 CALM 30.12F GREENVILLE CLOUDY 54 21 28 S9 30.16F HAVELOCK MOSUNNY 57 34 41 S15G21 30.18F KENANSVILLE PTSUNNY 59 31 34 S5 30.13S KINSTON PTSUNNY 55 25 30 S8 30.14F NEW BERN PTSUNNY 59 30 33 S15G23 30.16F RICHLANDS MOSUNNY 57 36 44 S15 30.15S ROCKY MOUNT CLOUDY 53 23 31 S7 30.13F WASHINGTON CLOUDY 54 19 26 S9 30.16F WHITEVILLE PTSUNNY 60 34 37 S10 30.13F $$ AMZ130-135-150-152-154-156-158-170-250-252-270-ANZ085-086-088-633-658-670-012200- MARINE OBSERVATIONS STATION/POSITION TIME TEMP WIND PRES WAVE SWELL AIR SEA DIR/SP/G HT/PER HT/PER (UTC) (F) (DEG/KT/KT) (MB) (FT/S) (FT/S) CHESAPEAKE LIGHT 2100 40 150/ 12/ 12 1021.7 64 E VA BEACH 2100 45 47 200/ 8/ 10 1021.7 3/11 3/11 DUCK 2100 42 40 150/ 9/ 10 1021.0 2 E DUCK 2100 41 N/A 2/ 7 2/11 10 NE DUCK 2100 43 N/A 3/ 7 2/12 OREGON INLET 2100 43 36 170/ 7/ 9 1021.9 13E OREGON INLT 2100 48 N/A 4/10 2/12 HATTERAS CG 2100 52 47 220/ 6/ 10 1022.6 DIAMOND BUOY 2100 56 71 250/ 10/ 14 1022.3 4/10 3/10 17 S OCRACOKE NOT AVBL CAPE LOOKOUT 2100 51 120/ 3/ 3 1021.6 BEAUFORT LAB 2100 52 45 210/ 3/ 4 1020.7 27 SE WRIGHTSVLE NOT AVBL 5 SE WRIGHTSVLE 2100 54 53 160/ 6/ 6 1020.9 225 S CAPE HAT 2036 62 71 210/ 8/ 14 1025.3 7/ 9 7/ 9 41 SE CHARLESTON 2100 65 71 160/ 17/ 21 1019.8 3/11 3/11 $$

USA.gov is the U.S. government's official web portal to all federal, state and local government web resources and services.